sat.trackr.live / text

‹ back to catalog

STARLINK-11249 [DTC]

NORAD 60728 · 2024-152J

PAYLOAD ACTIVE UNKNOWN

§ Identity

Operator
Country
US
Launch date
2024-08-28
Launch site
AFETR
Launch vehicle
Mass (kg)
RCS (m²)

Purposes: comms

External: N2YO · Heavens-Above · Gunter

§ Orbital elements

Epoch: 2026-09-21T21:32:40.021152Z

Period
91.74 min
Inclination
53.1592°
Eccentricity
0.0001076
Mean motion
15.69697758 rev/d
Perigee alt
359.0 km
Apogee alt
360.5 km
Semi-major
6,737.9 km
B*
2.2380e-5
RAAN
228.8826°
Arg perigee
81.3087°
Mean anomaly
278.8052°
Rev number
11,965

§ Raw data

STARLINK-11249 [DTC]1 60728U 24152J   26264.89768543  .00002122  00000+0  22380-4 0  99922 60728  53.1592 228.8826 0001076  81.3087 278.8052 15.69697758119654

JSON: /api/v1/satellites/60728 · /tle

For live sub-satellite position, see the globe view (requires WebGL).

§ Visibility from observer

Set your observer location to see the next 7 days of passes ≥ 10°. The values pass through the URL so the page stays shareable.

No JS? Fill the form by hand. The geolocation button needs JavaScript.